WV8BRW Weather Reports


time (UTC)temp
F
wind
direction
speed
knots
gust
knots
rain 1hr
in
rain 24hr
in
rain mn
in
humidity
%
barometer
mb
20260504141108 55 344 0.9 0.9 0.00 0.01 0.01 93 1012.4
20260504140604 55 328 0.9 1.7 0.00 0.01 0.01 93 1012.2
20260504130528 56 315 0.9 0.9 0.00 0.00 0.00 80 1012.3
20260504110416 43 333 0.9 0.9 0.00 0.00 0.00 96 1011.4
20260504100332 43 331 0.9 0.9 0.00 0.00 0.00 94 1011.8
20260504081726 43 332 0.9 0.9 0.00 0.00 0.00 99 1012.3
20260504081222 43 329 0.0 0.0 0.00 0.00 0.00 99 1012.4
20260504080719 43 333 0.9 1.7 0.00 0.00 0.00 99 1012.2
20260504080215 43 326 0.9 0.9 0.00 0.00 0.00 99 1012.3
20260504070143 45 333 0.0 0.0 0.00 0.00 0.00 99 1012.8
20260504060103 47 337 0.9 0.9 0.00 0.00 0.00 99 1013.3
20260504050531 48 332 0.0 0.9 0.00 0.00 0.00 97 1013.1
20260504045525 48 334 0.0 0.0 0.00 0.00 0.00 96 1013.5
20260504045021 48 326 0.0 0.0 0.00 0.00 0.00 95 1013.8
20260504044518 48 322 0.9 0.9 0.00 0.00 0.00 95 1013.6
20260504044015 49 337 0.9 0.9 0.00 0.00 0.00 95 1013.7
20260504043512 49 329 0.0 0.9 0.00 0.00 0.00 94 1013.7
20260504043010 48 331 0.0 0.0 0.00 0.00 0.00 93 1013.6
20260504042506 48 331 0.0 0.0 0.00 0.00 0.00 93 1013.7
20260504042003 49 331 0.0 0.0 0.00 0.00 0.00 93 1013.6
20260504041459 49 327 0.0 0.0 0.00 0.00 0.00 92 1013.7
20260504040955 49 327 0.0 0.0 0.00 0.00 0.00 91 1013.6
20260504040453 49 329 0.0 0.0 0.00 0.00 0.00 91 1013.9
20260504035949 49 344 0.9 0.9 0.00 0.00 0.00 89 1013.8
20260504035446 49 339 1.7 1.7 0.00 0.00 0.00 89 1013.9
20260504034943 49 333 0.0 0.0 0.00 0.00 0.00 86 1014.2
20260504034440 50 333 0.0 0.0 0.00 0.00 0.00 85 1013.9
20260504033937 50 333 0.0 0.9 0.00 0.00 0.00 82 1014.0
20260504033435 50 332 0.0 0.0 0.00 0.00 0.00 80 1013.7
20260504032932 50 334 0.9 0.9 0.00 0.00 0.00 79 1013.8
20260504032429 50 331 0.0 0.0 0.00 0.00 0.00 78 1013.8
20260504031925 50 2 2.6 2.6 0.00 0.00 0.00 76 1013.8
20260504031422 50 315 0.0 0.0 0.00 0.00 0.00 77 1014.1
20260504030919 50 332 0.0 0.0 0.00 0.00 0.00 76 1013.9
20260504030416 50 332 0.0 0.0 0.00 0.00 0.00 74 1013.8
20260504025912 50 307 0.0 0.9 0.00 0.00 0.00 77 1013.9
20260504025409 50 337 0.0 0.0 0.00 0.00 0.00 74 1014.0
20260504024906 50 337 0.0 0.0 0.00 0.00 0.00 75 1013.8
20260504024403 51 337 0.0 0.0 0.00 0.00 0.00 74 1013.8
20260504023900 51 337 0.0 0.0 0.00 0.00 0.00 74 1013.8
20260504023356 51 337 0.0 0.0 0.00 0.00 0.00 72 1013.7
20260504022852 51 338 0.0 0.0 0.00 0.00 0.00 71 1013.7
20260504022349 51 337 0.9 0.9 0.00 0.00 0.00 73 1013.7
20260504021845 51 336 0.0 0.9 0.00 0.00 0.00 71 1013.6
20260504021343 51 336 0.0 0.0 0.00 0.00 0.00 72 1013.6
20260504020840 51 336 0.0 0.0 0.00 0.00 0.00 72 1013.4
20260504020336 51 345 0.0 0.0 0.00 0.00 0.00 71 1013.3
20260504015832 51 337 0.9 0.9 0.00 0.00 0.00 71 1013.0
20260504015329 51 336 0.0 0.9 0.00 0.00 0.00 70 1013.0
20260504014825 51 336 0.0 0.0 0.00 0.00 0.00 70 1013.1
20260504014321 51 337 0.9 0.9 0.00 0.00 0.00 71 1013.2
20260504013819 51 337 0.0 0.9 0.00 0.00 0.00 71 1013.0
20260504013317 51 338 0.0 0.0 0.00 0.00 0.00 69 1013.1
20260504012813 51 340 0.9 0.9 0.00 0.00 0.00 68 1013.1
20260504012311 51 337 0.9 0.9 0.00 0.00 0.00 69 1013.2
20260504011808 52 341 1.7 1.7 0.00 0.00 0.00 68 1013.2
20260504011304 52 342 1.7 1.7 0.00 0.00 0.00 67 1013.1
20260504010800 52 338 1.7 1.7 0.00 0.00 0.00 66 1012.9
20260504010256 52 338 0.9 0.9 0.00 0.00 0.00 66 1013.2
20260504005753 53 339 0.9 1.7 0.00 0.00 0.00 66 1013.1
20260504005250 53 342 1.7 1.7 0.00 0.00 0.00 65 1013.1
20260504004748 53 339 0.9 1.7 0.00 0.00 0.00 64 1013.3
20260504004245 53 340 0.9 0.9 0.00 0.00 0.00 64 1013.3
20260504003741 54 340 0.9 1.7 0.00 0.00 0.00 63 1013.3
20260504003238 54 340 0.9 1.7 0.00 0.00 0.00 63 1013.1
20260504002735 54 341 0.9 0.9 0.00 0.00 0.00 61 1013.0
20260504002231 55 339 0.9 0.9 0.00 0.00 0.00 60 1013.1
20260504001730 55 340 0.9 0.9 0.00 0.00 0.00 55 1013.2
20260504001226 55 340 0.9 0.9 0.00 0.00 0.00 54 1013.1
20260504000723 56 341 0.9 0.9 0.00 0.00 0.00 54 1013.2
20260504000220 55 339 0.0 0.0 0.00 0.00 0.00 54 1013.2
20260503235718 56 340 0.0 0.0 0.00 0.00 0.00 57 1013.3
20260503235215 57 340 0.0 0.0 0.00 0.00 0.00 56 1013.1
20260503234713 58 340 0.0 0.0 0.00 0.00 0.00 54 1012.9
20260503234211 58 340 0.0 0.0 0.00 0.00 0.00 52 1013.1
20260503233707 59 340 0.0 0.0 0.00 0.00 0.00 52 1013.2
20260503233203 60 340 0.0 0.0 0.00 0.00 0.00 49 1013.1
20260503232700 59 341 0.0 0.0 0.00 0.00 0.00 43 1013.0
20260503232157 60 350 0.9 0.9 0.00 0.00 0.00 43 1013.4
20260503231656 60 343 0.0 0.9 0.00 0.00 0.00 42 1013.2
20260503231151 60 339 0.9 0.9 0.00 0.00 0.00 47 1013.5
20260503230648 60 324 0.0 0.0 0.00 0.00 0.00 44 1013.6
20260503230145 60 336 0.0 0.0 0.00 0.00 0.00 45 1013.2
20260503225643 61 359 1.7 1.7 0.00 0.00 0.00 42 1013.5
20260503225143 61 9 0.0 0.9 0.00 0.00 0.00 47 1013.7
20260503224640 62 19 0.9 0.9 0.00 0.00 0.00 39 1013.7
20260503224138 62 54 1.7 1.7 0.00 0.00 0.00 39 1013.6
20260503223636 62 78 1.7 1.7 0.00 0.00 0.00 39 1013.8
20260503223132 63 332 0.0 0.9 0.00 0.00 0.00 43 1013.6
20260503222629 63 337 0.0 0.9 0.00 0.00 0.00 35 1013.9
20260503222127 63 308 0.9 0.9 0.00 0.00 0.00 39 1014.0
20260503221625 63 334 0.0 0.0 0.00 0.00 0.00 41 1013.6
20260503221122 63 335 0.0 0.9 0.00 0.00 0.00 36 1013.8
20260503220619 65 336 0.0 0.9 0.00 0.00 0.00 36 1013.8
20260503220115 65 139 3.5 5.2 0.00 0.00 0.00 33 1013.7
20260503215612 65 279 0.9 1.7 0.00 0.00 0.00 39 1013.8
20260503215109 64 215 1.7 2.6 0.00 0.00 0.00 37 1013.6
20260503214608 64 303 0.9 0.9 0.00 0.00 0.00 32 1013.9
20260503214104 65 282 0.9 1.7 0.00 0.00 0.00 35 1013.8
20260503213603 65 200 1.7 2.6 0.00 0.00 0.00 34 1013.7
20260503213058 66 333 0.0 0.9 0.00 0.00 0.00 39 1013.8
20260503212556 66 313 0.9 0.9 0.00 0.00 0.00 36 1014.0
20260503212053 64 276 2.6 2.6 0.00 0.00 0.00 34 1014.2
20260503211551 66 196 3.5 4.3 0.00 0.00 0.00 34 1014.1
20260503211046 64 7 2.6 2.6 0.00 0.00 0.00 38 1014.1
20260503210543 65 225 3.5 5.2 0.00 0.00 0.00 36 1014.1
20260503210038 64 314 1.7 1.7 0.00 0.00 0.00 34 1014.1
20260503205535 64 290 1.7 1.7 0.00 0.00 0.00 36 1014.4
20260503205032 65 190 3.5 4.3 0.00 0.00 0.00 35 1014.2
20260503204529 66 288 1.7 1.7 0.00 0.00 0.00 39 1014.5
20260503204026 66 13 1.7 2.6 0.00 0.00 0.00 39 1014.3
20260503203523 66 255 2.6 2.6 0.00 0.00 0.00 38 1014.6
20260503203020 64 235 2.6 2.6 0.00 0.00 0.00 39 1014.5
20260503202518 63 281 1.7 1.7 0.00 0.00 0.00 36 1014.7
20260503202016 64 358 0.9 1.7 0.00 0.00 0.00 37 1014.7
20260503201514 64 219 2.6 2.6 0.00 0.00 0.00 38 1014.8
20260503201011 65 277 3.5 4.3 0.00 0.00 0.00 36 1014.9
20260503200507 63 91 3.5 4.3 0.00 0.00 0.00 37 1015.0
20260503200004 63 12 1.7 1.7 0.00 0.00 0.00 33 1015.3
20260503195501 63 194 1.7 2.6 0.00 0.00 0.00 34 1015.4
20260503194957 62 142 4.3 5.2 0.00 0.00 0.00 36 1015.4
20260503194455 63 214 1.7 1.7 0.00 0.00 0.00 38 1015.3
20260503193949 63 204 3.5 5.2 0.00 0.00 0.00 38 1015.5
20260503193445 62 311 0.0 0.9 0.00 0.00 0.00 37 1015.8
20260503192941 62 257 0.9 1.7 0.00 0.00 0.00 36 1015.7
20260503192437 62 304 1.7 1.7 0.00 0.00 0.00 38 1015.9
20260503191933 63 288 0.9 1.7 0.00 0.00 0.00 38 1016.1
20260503191431 62 142 1.7 1.7 0.00 0.00 0.00 40 1016.1
20260503190927 62 213 1.7 1.7 0.00 0.00 0.00 41 1016.4
20260503190425 61 262 1.7 2.6 0.00 0.00 0.00 36 1016.5
20260503185922 62 68 2.6 2.6 0.00 0.00 0.00 35 1016.5
20260503185418 63 227 3.5 5.2 0.00 0.00 0.00 40 1016.6
20260503184917 63 306 0.9 1.7 0.00 0.00 0.00 38 1016.6
20260503184414 61 347 2.6 5.2 0.00 0.00 0.00 41 1016.6
20260503183910 62 246 1.7 1.7 0.00 0.00 0.00 41 1016.7
20260503183407 60 325 0.9 1.7 0.00 0.00 0.00 37 1016.9
20260503182904 60 342 1.7 1.7 0.00 0.00 0.00 35 1017.0
20260503182403 61 327 0.9 1.7 0.00 0.00 0.00 36 1017.4
20260503181900 61 340 0.0 0.9 0.00 0.00 0.00 42 1017.0
20260503181357 60 267 3.5 4.3 0.00 0.00 0.00 39 1017.2
20260503180853 59 58 2.6 2.6 0.00 0.00 0.00 47 1017.1
20260503180351 61 253 3.5 4.3 0.00 0.00 0.00 40 1017.6
20260503175847 60 208 4.3 5.2 0.00 0.00 0.00 39 1017.4
20260503175346 60 200 3.5 4.3 0.00 0.00 0.00 38 1017.3
20260503174841 60 279 2.6 2.6 0.00 0.00 0.00 41 1017.6
20260503174339 60 198 5.2 6.1 0.00 0.00 0.00 41 1017.8
20260503173834 59 215 2.6 4.3 0.00 0.00 0.00 42 1018.0
20260503173331 58 257 4.3 6.1 0.00 0.00 0.00 43 1017.8
20260503172827 59 9 0.9 0.9 0.00 0.00 0.00 40 1017.6
20260503172326 59 149 0.9 1.7 0.00 0.00 0.00 42 1017.8
20260503171821 59 213 3.5 4.3 0.00 0.00 0.00 43 1017.8
20260503171318 59 292 2.6 4.3 0.00 0.00 0.00 44 1018.1
20260503170816 59 272 2.6 2.6 0.00 0.00 0.00 45 1018.3
20260503170312 59 320 0.9 0.9 0.00 0.00 0.00 47 1018.1
20260503150704 54 15 1.7 1.7 0.00 0.00 0.00 50 1019.0
20260503150200 53 217 2.6 2.6 0.00 0.00 0.00 50 1019.5